{"data":{"norad_id":56962,"epoch":"2026-06-27T01:37:57.608832Z","epoch_age_seconds":7581345,"freshness":"OLD","line1":"1 56962U 23084AG  26178.06802788  .06590774  26690-5  56747-3 0  9996","line2":"2 56962  97.5949 343.9369 0011960 262.0269  97.9672 16.39248811170656","mean_motion":16.39248811,"eccentricity":0.001196,"inclination_deg":97.5949,"raan_deg":343.9369,"arg_perigee_deg":262.0269,"mean_anomaly_deg":97.9672,"bstar":0.00056747,"rev_number":17065,"period_min":87.845114807285,"perigee_km":159.97259320429,"apogee_km":175.63047818167,"semimajor_km":6545.938535693,"source":"CELESTRAK","updated_at":"2026-06-27T09:00:21.772918Z"}}